| time (UTC) | temp F | wind direction | speed MPH | gust MPH | rain 1hr in | rain 24hr in | rain mn in | humidity % | barometer mb |
| 20260903230403 | 95 | 9 | 2.0 | 5.0 | 0.00 | 0.00 | 0.00 | 38 | 1011.5 |
| 20260903225902 | 96 | 217 | 2.0 | 8.0 | 0.00 | 0.00 | 0.00 | 38 | 1011.6 |
| 20260903225403 | 96 | 319 | 1.0 | 8.0 | 0.00 | 0.00 | 0.00 | 37 | 1011.7 |
| 20260903224902 | 96 | 172 | 2.0 | 7.0 | 0.00 | 0.00 | 0.00 | 38 | 1011.7 |
| 20260903223903 | 96 | 207 | 2.0 | 6.0 | 0.00 | 0.00 | 0.00 | 38 | 1011.6 |
| 20260903223402 | 96 | 304 | 2.0 | 8.0 | 0.00 | 0.00 | 0.00 | 39 | 1011.6 |
| 20260903222903 | 96 | 222 | 3.0 | 12.0 | 0.00 | 0.00 | 0.00 | 39 | 1011.7 |
| 20260903222402 | 96 | 231 | 6.0 | 12.0 | 0.00 | 0.00 | 0.00 | 38 | 1011.8 |
| 20260903221403 | 96 | 216 | 3.0 | 8.0 | 0.00 | 0.00 | 0.00 | 38 | 1011.9 |
| 20260903220902 | 95 | 231 | 4.0 | 9.0 | 0.00 | 0.00 | 0.00 | 39 | 1011.9 |
| 20260903220402 | 94 | 229 | 2.0 | 9.0 | 0.00 | 0.00 | 0.00 | 40 | 1012.1 |
| 20260903215903 | 95 | 232 | 3.0 | 9.0 | 0.00 | 0.00 | 0.00 | 40 | 1012.1 |
| 20260903215402 | 96 | 228 | 2.0 | 7.0 | 0.00 | 0.00 | 0.00 | 38 | 1012.1 |
| 20260903214902 | 95 | 218 | 2.0 | 7.0 | 0.00 | 0.00 | 0.00 | 39 | 1012.2 |
| 20260903214402 | 95 | 209 | 4.0 | 7.0 | 0.00 | 0.00 | 0.00 | 39 | 1012.2 |
| 20260903213403 | 97 | 5 | 2.0 | 6.0 | 0.00 | 0.00 | 0.00 | 38 | 1012.2 |
| 20260903212903 | 96 | 179 | 2.0 | 8.0 | 0.00 | 0.00 | 0.00 | 38 | 1012.3 |
| 20260903212403 | 96 | 172 | 2.0 | 8.0 | 0.00 | 0.00 | 0.00 | 39 | 1012.3 |
| 20260903211902 | 96 | 10 | 3.0 | 8.0 | 0.00 | 0.00 | 0.00 | 39 | 1012.4 |
| 20260903211403 | 96 | 69 | 1.0 | 5.0 | 0.00 | 0.00 | 0.00 | 39 | 1012.5 |
| 20260903210403 | 95 | 51 | 1.0 | 6.0 | 0.00 | 0.00 | 0.00 | 40 | 1012.6 |
| 20260903205402 | 94 | 303 | 1.0 | 8.0 | 0.00 | 0.00 | 0.00 | 40 | 1012.8 |
| 20260903204902 | 93 | 98 | 1.0 | 5.0 | 0.00 | 0.00 | 0.00 | 41 | 1012.8 |
| 20260903204402 | 94 | 304 | 2.0 | 5.0 | 0.00 | 0.00 | 0.00 | 41 | 1012.9 |
| 20260903203903 | 92 | 110 | 1.0 | 7.0 | 0.00 | 0.00 | 0.00 | 42 | 1013.1 |
| 20260903203403 | 93 | 217 | 3.0 | 7.0 | 0.00 | 0.00 | 0.00 | 41 | 1013.1 |
| 20260903202903 | 93 | 193 | 2.0 | 7.0 | 0.00 | 0.00 | 0.00 | 40 | 1013.1 |
| 20260903202403 | 95 | 230 | 4.0 | 6.0 | 0.00 | 0.00 | 0.00 | 39 | 1013.2 |
| 20260903201402 | 94 | 9 | 2.0 | 6.0 | 0.00 | 0.00 | 0.00 | 39 | 1013.5 |
| 20260903200902 | 95 | 203 | 2.0 | 6.0 | 0.00 | 0.00 | 0.00 | 40 | 1013.5 |
| 20260903195903 | 94 | 222 | 2.0 | 6.0 | 0.00 | 0.00 | 0.00 | 41 | 1013.7 |
| 20260903195403 | 94 | 316 | 2.0 | 7.0 | 0.00 | 0.00 | 0.00 | 41 | 1013.8 |
| 20260903194902 | 94 | 240 | 3.0 | 9.0 | 0.00 | 0.00 | 0.00 | 41 | 1013.8 |
| 20260903194402 | 94 | 205 | 3.0 | 9.0 | 0.00 | 0.00 | 0.00 | 41 | 1013.8 |
| 20260903193903 | 94 | 341 | 2.0 | 8.0 | 0.00 | 0.00 | 0.00 | 40 | 1013.9 |
| 20260903192902 | 94 | 26 | 2.0 | 3.0 | 0.00 | 0.00 | 0.00 | 41 | 1014.1 |
| 20260903192402 | 94 | 346 | 2.0 | 3.0 | 0.00 | 0.00 | 0.00 | 41 | 1014.2 |
| 20260903191903 | 94 | 325 | 1.0 | 3.0 | 0.00 | 0.00 | 0.00 | 41 | 1014.3 |
| 20260903191403 | 93 | 84 | 2.0 | 3.0 | 0.00 | 0.00 | 0.00 | 42 | 1014.3 |
| 20260903190902 | 93 | 62 | 1.0 | 5.0 | 0.00 | 0.00 | 0.00 | 43 | 1014.4 |
| 20260903190402 | 91 | 97 | 1.0 | 6.0 | 0.00 | 0.00 | 0.00 | 44 | 1014.5 |
| 20260903185902 | 91 | 183 | 2.0 | 6.0 | 0.00 | 0.00 | 0.00 | 43 | 1014.6 |
| 20260903184903 | 90 | 200 | 2.0 | 3.0 | 0.00 | 0.00 | 0.00 | 45 | 1014.8 |
| 20260903184403 | 91 | 196 | 2.0 | 5.0 | 0.00 | 0.00 | 0.00 | 45 | 1014.8 |
| 20260903183903 | 90 | 127 | 2.0 | 5.0 | 0.00 | 0.00 | 0.00 | 46 | 1014.9 |
| 20260903183402 | 90 | 67 | 1.0 | 3.0 | 0.00 | 0.00 | 0.00 | 46 | 1015.0 |
| 20260903182902 | 91 | 80 | 2.0 | 3.0 | 0.00 | 0.00 | 0.00 | 45 | 1015.2 |
| 20260903181903 | 90 | 230 | 2.0 | 3.0 | 0.00 | 0.00 | 0.00 | 46 | 1015.3 |
| 20260903181403 | 89 | 42 | 2.0 | 3.0 | 0.00 | 0.00 | 0.00 | 49 | 1015.4 |
| 20260903180902 | 88 | 57 | 2.0 | 6.0 | 0.00 | 0.00 | 0.00 | 50 | 1015.4 |
| 20260903175402 | 89 | 184 | 1.0 | 3.0 | 0.00 | 0.00 | 0.00 | 48 | 1015.7 |
| 20260903174903 | 89 | 68 | 1.0 | 6.0 | 0.00 | 0.00 | 0.00 | 49 | 1015.8 |
| 20260903174403 | 88 | 34 | 2.0 | 7.0 | 0.00 | 0.00 | 0.00 | 50 | 1015.8 |
| 20260903173402 | 88 | 78 | 3.0 | 7.0 | 0.00 | 0.00 | 0.00 | 51 | 1016.0 |
| 20260903171902 | 85 | 197 | 1.0 | 3.0 | 0.00 | 0.00 | 0.00 | 54 | 1015.8 |
| 20260903171403 | 85 | 152 | 1.0 | 5.0 | 0.00 | 0.00 | 0.00 | 55 | 1015.7 |
| 20260903170902 | 84 | 232 | 2.0 | 5.0 | 0.00 | 0.00 | 0.00 | 55 | 1015.7 |
| 20260903170403 | 84 | 212 | 2.0 | 3.0 | 0.00 | 0.00 | 0.00 | 55 | 1015.7 |
| 20260903165902 | 84 | 182 | 1.0 | 3.0 | 0.00 | 0.00 | 0.00 | 55 | 1015.8 |
| 20260903164903 | 84 | 204 | 0.0 | 6.0 | 0.00 | 0.00 | 0.00 | 57 | 1015.7 |
| 20260903164403 | 83 | 226 | 1.0 | 6.0 | 0.00 | 0.00 | 0.00 | 57 | 1015.8 |
| 20260903163902 | 83 | 214 | 2.0 | 5.0 | 0.00 | 0.00 | 0.00 | 57 | 1015.7 |
| 20260903163402 | 83 | 223 | 2.0 | 5.0 | 0.00 | 0.00 | 0.00 | 57 | 1015.7 |
| 20260903162403 | 83 | 230 | 3.0 | 8.0 | 0.00 | 0.00 | 0.00 | 58 | 1015.7 |
| 20260903161403 | 83 | 223 | 3.0 | 5.0 | 0.00 | 0.00 | 0.00 | 60 | 1015.8 |
| 20260903160903 | 83 | 230 | 3.0 | 3.0 | 0.00 | 0.00 | 0.00 | 62 | 1015.8 |
| 20260903160402 | 83 | 228 | 2.0 | 3.0 | 0.00 | 0.00 | 0.00 | 61 | 1015.8 |
| 20260903155902 | 84 | 214 | 1.0 | 3.0 | 0.00 | 0.00 | 0.00 | 59 | 1015.9 |
| 20260903155403 | 84 | 11 | 1.0 | 3.0 | 0.00 | 0.00 | 0.00 | 55 | 1015.8 |
| 20260903154902 | 84 | 57 | 1.0 | 3.0 | 0.00 | 0.00 | 0.00 | 57 | 1015.8 |
| 20260903154402 | 84 | 113 | 1.0 | 6.0 | 0.00 | 0.00 | 0.00 | 56 | 1015.8 |
| 20260903153903 | 84 | 98 | 2.0 | 6.0 | 0.00 | 0.00 | 0.00 | 56 | 1015.7 |
| 20260903153402 | 83 | 64 | 1.0 | 3.0 | 0.00 | 0.00 | 0.00 | 58 | 1015.6 |
| 20260903152403 | 82 | 99 | 1.0 | 3.0 | 0.00 | 0.00 | 0.00 | 61 | 1015.7 |
| 20260903151402 | 82 | 43 | 0.0 | 3.0 | 0.00 | 0.00 | 0.00 | 61 | 1015.7 |
| 20260903150902 | 81 | 41 | 2.0 | 3.0 | 0.00 | 0.00 | 0.00 | 60 | 1015.7 |
| 20260903145402 | 80 | 66 | 2.0 | 7.0 | 0.00 | 0.00 | 0.00 | 65 | 1015.6 |
| 20260903144903 | 80 | 76 | 2.0 | 6.0 | 0.00 | 0.00 | 0.00 | 66 | 1015.8 |
| 20260903144403 | 80 | 45 | 1.0 | 6.0 | 0.00 | 0.00 | 0.00 | 66 | 1015.7 |
| 20260903143402 | 78 | 43 | 2.0 | 3.0 | 0.00 | 0.00 | 0.00 | 70 | 1015.6 |
| 20260903142904 | 77 | 74 | 1.0 | 3.0 | 0.00 | 0.00 | 0.00 | 71 | 1015.7 |
| 20260903141902 | 77 | 39 | 1.0 | 3.0 | 0.00 | 0.00 | 0.00 | 73 | 1015.9 |
| 20260903141402 | 77 | 349 | 1.0 | 5.0 | 0.00 | 0.00 | 0.00 | 74 | 1015.9 |
| 20260903140902 | 76 | 15 | 1.0 | 5.0 | 0.00 | 0.00 | 0.00 | 75 | 1016.0 |
| 20260903140402 | 76 | 14 | 1.0 | 3.0 | 0.00 | 0.00 | 0.00 | 76 | 1016.0 |
| 20260903135903 | 76 | 341 | 1.0 | 3.0 | 0.00 | 0.00 | 0.00 | 76 | 1015.9 |
| 20260903135403 | 77 | 277 | 1.0 | 3.0 | 0.00 | 0.00 | 0.00 | 75 | 1015.9 |
| 20260903134902 | 77 | 313 | 1.0 | 3.0 | 0.00 | 0.00 | 0.00 | 74 | 1016.1 |
| 20260903134403 | 78 | 284 | 1.0 | 6.0 | 0.00 | 0.00 | 0.00 | 72 | 1016.0 |
| 20260903133902 | 78 | 277 | 1.0 | 6.0 | 0.00 | 0.00 | 0.00 | 71 | 1015.9 |
| 20260903132902 | 79 | 267 | 2.0 | 3.0 | 0.00 | 0.00 | 0.00 | 67 | 1015.9 |
| 20260903132403 | 79 | 237 | 2.0 | 6.0 | 0.00 | 0.00 | 0.00 | 64 | 1015.8 |
| 20260903131903 | 80 | 217 | 1.0 | 8.0 | 0.00 | 0.00 | 0.00 | 63 | 1015.7 |
| 20260903131403 | 80 | 241 | 3.0 | 8.0 | 0.00 | 0.00 | 0.00 | 62 | 1015.6 |
| 20260903130902 | 80 | 232 | 2.0 | 3.0 | 0.00 | 0.00 | 0.00 | 63 | 1015.4 |
| 20260903130403 | 80 | 242 | 0.0 | 3.0 | 0.00 | 0.00 | 0.00 | 64 | 1015.4 |
| 20260903125902 | 81 | 237 | 2.0 | 3.0 | 0.00 | 0.00 | 0.00 | 62 | 1015.4 |
| 20260903124903 | 81 | 226 | 0.0 | 3.0 | 0.00 | 0.00 | 0.00 | 63 | 1015.3 |
| 20260903123902 | 81 | 209 | 1.0 | 3.0 | 0.00 | 0.00 | 0.00 | 64 | 1015.0 |
| 20260903123402 | 81 | 236 | 0.0 | 3.0 | 0.00 | 0.00 | 0.00 | 63 | 1015.0 |
| 20260903122902 | 81 | 211 | 1.0 | 6.0 | 0.00 | 0.00 | 0.00 | 63 | 1015.0 |
| 20260903122402 | 81 | 216 | 2.0 | 6.0 | 0.00 | 0.00 | 0.00 | 63 | 1014.9 |
| 20260903121903 | 81 | 206 | 2.0 | 6.0 | 0.00 | 0.00 | 0.00 | 63 | 1014.9 |
| 20260903120903 | 81 | 235 | 1.0 | 3.0 | 0.00 | 0.00 | 0.00 | 62 | 1014.8 |
| 20260903114403 | 81 | 121 | 1.0 | 3.0 | 0.00 | 0.00 | 0.00 | 62 | 1014.4 |
| 20260903113902 | 81 | 132 | 1.0 | 3.0 | 0.00 | 0.00 | 0.00 | 62 | 1014.4 |
| 20260903113402 | 81 | 89 | 1.0 | 5.0 | 0.00 | 0.00 | 0.00 | 62 | 1014.4 |
| 20260903112403 | 81 | 127 | 1.0 | 3.0 | 0.00 | 0.00 | 0.00 | 63 | 1014.3 |
| 20260903111903 | 81 | 116 | 1.0 | 3.0 | 0.00 | 0.00 | 0.00 | 63 | 1014.2 |
| 20260903111402 | 81 | 106 | 0.0 | 3.0 | 0.00 | 0.00 | 0.00 | 63 | 1014.3 |
| 20260903110903 | 81 | 111 | 1.0 | 6.0 | 0.00 | 0.00 | 0.00 | 63 | 1014.3 |
| 20260903110402 | 81 | 121 | 1.0 | 6.0 | 0.00 | 0.00 | 0.00 | 63 | 1014.3 |
| 20260903105903 | 81 | 136 | 2.0 | 6.0 | 0.00 | 0.00 | 0.00 | 63 | 1014.2 |
| 20260903105403 | 81 | 119 | 1.0 | 6.0 | 0.00 | 0.00 | 0.00 | 63 | 1014.3 |
| 20260903104903 | 81 | 136 | 2.0 | 6.0 | 0.00 | 0.00 | 0.00 | 63 | 1014.3 |
| 20260903104403 | 81 | 101 | 1.0 | 6.0 | 0.00 | 0.00 | 0.00 | 63 | 1014.3 |
| 20260903103903 | 81 | 97 | 2.0 | 7.0 | 0.00 | 0.00 | 0.00 | 63 | 1014.4 |
| 20260903103403 | 81 | 123 | 2.0 | 7.0 | 0.00 | 0.00 | 0.00 | 63 | 1014.5 |
| 20260903102403 | 82 | 112 | 1.0 | 6.0 | 0.00 | 0.00 | 0.00 | 62 | 1014.4 |
| 20260903101902 | 82 | 127 | 2.0 | 5.0 | 0.00 | 0.00 | 0.00 | 62 | 1014.4 |
| 20260903100903 | 82 | 110 | 2.0 | 6.0 | 0.00 | 0.00 | 0.00 | 61 | 1014.4 |
| 20260903100402 | 82 | 117 | 1.0 | 3.0 | 0.00 | 0.00 | 0.00 | 61 | 1014.4 |
| 20260903095403 | 82 | 114 | 0.0 | 2.0 | 0.00 | 0.00 | 0.00 | 61 | 1014.3 |
| 20260903094902 | 82 | 93 | 0.0 | 1.0 | 0.00 | 0.00 | 0.00 | 62 | 1014.4 |
| 20260903094403 | 82 | 90 | 0.0 | 1.0 | 0.00 | 0.00 | 0.00 | 62 | 1014.4 |
| 20260903093903 | 82 | 90 | 0.0 | 1.0 | 0.00 | 0.00 | 0.00 | 62 | 1014.4 |
| 20260903093402 | 82 | 90 | 0.0 | 1.0 | 0.00 | 0.00 | 0.00 | 61 | 1014.4 |
| 20260903092903 | 83 | 90 | 0.0 | 1.0 | 0.00 | 0.00 | 0.00 | 61 | 1014.5 |
| 20260903092403 | 82 | 90 | 0.0 | 1.0 | 0.00 | 0.00 | 0.00 | 61 | 1014.5 |
| 20260903091903 | 83 | 90 | 0.0 | 1.0 | 0.00 | 0.00 | 0.00 | 60 | 1014.5 |
| 20260903090405 | 83 | 90 | 0.0 | 1.0 | 0.00 | 0.00 | 0.00 | 58 | 1014.6 |
| 20260903085902 | 83 | 90 | 0.0 | 1.0 | 0.00 | 0.00 | 0.00 | 57 | 1014.7 |
| 20260903085402 | 83 | 90 | 0.0 | 1.0 | 0.00 | 0.00 | 0.00 | 57 | 1014.7 |
| 20260903084903 | 83 | 90 | 0.0 | 1.0 | 0.00 | 0.00 | 0.00 | 56 | 1014.6 |
| 20260903083902 | 84 | 90 | 0.0 | 1.0 | 0.00 | 0.00 | 0.00 | 56 | 1014.7 |
| 20260903083403 | 84 | 90 | 0.0 | 1.0 | 0.00 | 0.00 | 0.00 | 55 | 1014.7 |
| 20260903082902 | 84 | 90 | 0.0 | 1.0 | 0.00 | 0.00 | 0.00 | 54 | 1014.7 |
| 20260903082405 | 84 | 89 | 0.0 | 1.0 | 0.00 | 0.00 | 0.00 | 54 | 1014.8 |
| 20260903081903 | 84 | 215 | 0.0 | 1.0 | 0.00 | 0.00 | 0.00 | 53 | 1014.8 |
| 20260903080902 | 84 | 254 | 0.0 | 3.0 | 0.00 | 0.00 | 0.00 | 53 | 1014.8 |
| 20260903080403 | 84 | 246 | 0.0 | 3.0 | 0.00 | 0.00 | 0.00 | 53 | 1014.8 |
| 20260903075902 | 84 | 120 | 1.0 | 3.0 | 0.00 | 0.00 | 0.00 | 54 | 1014.8 |
| 20260903075402 | 84 | 114 | 1.0 | 3.0 | 0.00 | 0.00 | 0.00 | 53 | 1014.8 |
| 20260903074903 | 84 | 188 | 1.0 | 3.0 | 0.00 | 0.00 | 0.00 | 54 | 1014.9 |
| 20260903073902 | 84 | 221 | 0.0 | 3.0 | 0.00 | 0.00 | 0.00 | 54 | 1014.9 |
| 20260903072903 | 85 | 223 | 2.0 | 3.0 | 0.00 | 0.00 | 0.00 | 54 | 1014.8 |
| 20260903072402 | 85 | 228 | 2.0 | 3.0 | 0.00 | 0.00 | 0.00 | 53 | 1014.8 |
| 20260903071902 | 85 | 245 | 1.0 | 3.0 | 0.00 | 0.00 | 0.00 | 53 | 1014.8 |
| 20260903070403 | 85 | 241 | 1.0 | 3.0 | 0.00 | 0.00 | 0.00 | 54 | 1014.8 |
| 20260903065402 | 85 | 246 | 0.0 | 1.0 | 0.00 | 0.00 | 0.00 | 54 | 1014.6 |
| 20260903064903 | 85 | 246 | 0.0 | 2.0 | 0.00 | 0.00 | 0.00 | 54 | 1014.6 |
| 20260903064402 | 85 | 246 | 0.0 | 2.0 | 0.00 | 0.00 | 0.00 | 54 | 1014.5 |
| 20260903063902 | 85 | 246 | 1.0 | 2.0 | 0.00 | 0.00 | 0.00 | 55 | 1014.5 |
| 20260903063402 | 85 | 259 | 0.0 | 2.0 | 0.00 | 0.00 | 0.00 | 54 | 1014.5 |
| 20260903062403 | 85 | 296 | 0.0 | 1.0 | 0.00 | 0.00 | 0.00 | 54 | 1014.5 |
| 20260903061902 | 85 | 275 | 0.0 | 3.0 | 0.00 | 0.00 | 0.00 | 54 | 1014.6 |
| 20260903061402 | 85 | 231 | 1.0 | 3.0 | 0.00 | 0.00 | 0.00 | 54 | 1014.6 |
| 20260903060402 | 85 | 249 | 0.0 | 3.0 | 0.00 | 0.00 | 0.00 | 53 | 1014.6 |
| 20260903055903 | 85 | 238 | 0.0 | 3.0 | 0.00 | 0.00 | 0.00 | 52 | 1014.7 |
| 20260903055402 | 85 | 260 | 0.0 | 2.0 | 0.00 | 0.00 | 0.00 | 52 | 1014.7 |
| 20260903054903 | 86 | 260 | 0.0 | 2.0 | 0.00 | 0.00 | 0.00 | 51 | 1014.8 |
| 20260903054403 | 85 | 260 | 0.0 | 3.0 | 0.00 | 0.00 | 0.00 | 52 | 1014.8 |
| 20260903052402 | 86 | 71 | 0.0 | 2.0 | 0.00 | 0.00 | 0.00 | 52 | 1014.9 |
| 20260903051907 | 86 | 71 | 0.0 | 3.0 | 0.00 | 0.00 | 0.00 | 52 | 1014.8 |
| 20260903051402 | 86 | 83 | 1.0 | 3.0 | 0.00 | 0.00 | 0.00 | 51 | 1014.8 |
| 20260903050902 | 86 | 87 | 1.0 | 2.0 | 0.00 | 0.00 | 0.00 | 51 | 1014.8 |
| 20260903044402 | 87 | 204 | 0.0 | 3.0 | 0.00 | 0.00 | 0.00 | 50 | 1014.6 |
| 20260903043903 | 87 | 175 | 1.0 | 3.0 | 0.00 | 0.00 | 0.00 | 50 | 1014.6 |
| 20260903043403 | 87 | 140 | 1.0 | 5.0 | 0.00 | 0.00 | 0.00 | 50 | 1014.6 |
| 20260903042903 | 87 | 109 | 1.0 | 5.0 | 0.00 | 0.00 | 0.00 | 50 | 1014.5 |
| 20260903042403 | 87 | 118 | 1.0 | 5.0 | 0.00 | 0.00 | 0.00 | 49 | 1014.6 |
| 20260903041902 | 87 | 179 | 1.0 | 5.0 | 0.00 | 0.00 | 0.00 | 48 | 1014.6 |
| 20260903040903 | 87 | 105 | 2.0 | 5.0 | 0.00 | 0.00 | 0.00 | 48 | 1014.4 |
| 20260903040402 | 87 | 111 | 1.0 | 6.0 | 0.00 | 0.00 | 0.00 | 48 | 1014.3 |
| 20260903034903 | 88 | 112 | 2.0 | 6.0 | 0.00 | 0.00 | 0.00 | 48 | 1014.0 |
| 20260903034402 | 88 | 103 | 2.0 | 7.0 | 0.00 | 0.00 | 0.00 | 47 | 1014.0 |
| 20260903033903 | 88 | 114 | 2.0 | 7.0 | 0.00 | 0.00 | 0.00 | 46 | 1014.0 |
| 20260903031904 | 88 | 80 | 2.0 | 3.0 | 0.00 | 0.00 | 0.00 | 43 | 1013.6 |
| 20260903030902 | 89 | 130 | 1.0 | 3.0 | 0.00 | 0.00 | 0.00 | 42 | 1013.5 |
| 20260903030402 | 89 | 94 | 0.0 | 3.0 | 0.00 | 0.00 | 0.00 | 43 | 1013.4 |
| 20260903025903 | 89 | 103 | 1.0 | 3.0 | 0.00 | 0.00 | 0.00 | 42 | 1013.4 |
| 20260903025402 | 89 | 109 | 1.0 | 2.0 | 0.00 | 0.00 | 0.00 | 41 | 1013.4 |
| 20260903024403 | 90 | 99 | 1.0 | 2.0 | 0.00 | 0.00 | 0.00 | 40 | 1013.3 |
| 20260903023402 | 90 | 121 | 0.0 | 2.0 | 0.00 | 0.00 | 0.00 | 38 | 1013.2 |
| 20260903022903 | 90 | 131 | 0.0 | 3.0 | 0.00 | 0.00 | 0.00 | 38 | 1013.2 |
| 20260903022403 | 90 | 182 | 0.0 | 3.0 | 0.00 | 0.00 | 0.00 | 38 | 1013.2 |
| 20260903021403 | 90 | 168 | 0.0 | 3.0 | 0.00 | 0.00 | 0.00 | 39 | 1013.1 |
| 20260903020903 | 90 | 131 | 1.0 | 3.0 | 0.00 | 0.00 | 0.00 | 42 | 1013.1 |
| 20260903020403 | 90 | 117 | 2.0 | 3.0 | 0.00 | 0.00 | 0.00 | 43 | 1013.2 |
| 20260903015403 | 91 | 93 | 1.0 | 2.0 | 0.00 | 0.00 | 0.00 | 40 | 1013.1 |
| 20260903014903 | 92 | 98 | 1.0 | 2.0 | 0.00 | 0.00 | 0.00 | 37 | 1013.0 |
| 20260903014403 | 92 | 125 | 0.0 | 2.0 | 0.00 | 0.00 | 0.00 | 35 | 1013.1 |
| 20260903013902 | 92 | 238 | 0.0 | 2.0 | 0.00 | 0.00 | 0.00 | 35 | 1013.0 |
| 20260903013402 | 92 | 238 | 0.0 | 3.0 | 0.00 | 0.00 | 0.00 | 34 | 1012.9 |
| 20260903012903 | 93 | 235 | 2.0 | 3.0 | 0.00 | 0.00 | 0.00 | 35 | 1012.9 |
| 20260903012403 | 93 | 274 | 1.0 | 2.0 | 0.00 | 0.00 | 0.00 | 34 | 1012.9 |
| 20260903011903 | 93 | 280 | 0.0 | 2.0 | 0.00 | 0.00 | 0.00 | 34 | 1012.8 |
| 20260903011403 | 93 | 251 | 1.0 | 5.0 | 0.00 | 0.00 | 0.00 | 34 | 1012.8 |
| 20260903005902 | 93 | 233 | 2.0 | 5.0 | 0.00 | 0.00 | 0.00 | 34 | 1012.8 |
| 20260903005402 | 93 | 250 | 2.0 | 6.0 | 0.00 | 0.00 | 0.00 | 34 | 1012.8 |
| 20260903004402 | 93 | 230 | 2.0 | 3.0 | 0.00 | 0.00 | 0.00 | 37 | 1012.8 |
| 20260903003903 | 94 | 184 | 1.0 | 3.0 | 0.00 | 0.00 | 0.00 | 38 | 1012.9 |
| 20260903003403 | 94 | 231 | 1.0 | 5.0 | 0.00 | 0.00 | 0.00 | 39 | 1013.1 |
| 20260903001902 | 94 | 242 | 1.0 | 6.0 | 0.00 | 0.00 | 0.00 | 39 | 1013.0 |
| 20260903001403 | 94 | 307 | 2.0 | 6.0 | 0.00 | 0.00 | 0.00 | 38 | 1013.1 |
| 20260903000403 | 94 | 255 | 1.0 | 6.0 | 0.00 | 0.00 | 0.00 | 38 | 1013.0 |
| 20260902235403 | 94 | 335 | 1.0 | 3.0 | 0.00 | 0.00 | 0.00 | 38 | 1013.1 |
| 20260902234902 | 94 | 232 | 0.0 | 3.0 | 0.00 | 0.00 | 0.00 | 38 | 1013.1 |
| 20260902234403 | 94 | 335 | 0.0 | 3.0 | 0.00 | 0.00 | 0.00 | 38 | 1013.1 |
| 20260902232402 | 94 | 327 | 2.0 | 6.0 | 0.00 | 0.00 | 0.00 | 38 | 1013.1 |